| time (UTC) | temp C | wind direction | speed KPH | gust KPH | rain 1hr cm | rain 24hr cm | rain mn cm | humidity % | barometer mb |
| 20260906183006 | 28 | 354 | 1.6 | 14.5 | 0.00 | 0.00 | 0.00 | 50 | 1013.4 |
| 20260906181006 | 30 | 27 | 8.0 | 16.1 | 0.00 | 0.00 | 0.00 | 47 | 1013.3 |
| 20260906180005 | 30 | 334 | 4.8 | 16.1 | 0.00 | 0.00 | 0.00 | 46 | 1013.3 |
| 20260906175006 | 31 | 63 | 12.9 | 19.3 | 0.00 | 0.00 | 0.00 | 44 | 1013.2 |
| 20260906174006 | 31 | 19 | 12.9 | 19.3 | 0.00 | 0.00 | 0.00 | 44 | 1013.2 |
| 20260906173006 | 31 | 54 | 4.8 | 19.3 | 0.00 | 0.00 | 0.00 | 43 | 1013.0 |
| 20260906172006 | 31 | 11 | 11.3 | 20.9 | 0.00 | 0.00 | 0.00 | 43 | 1013.0 |
| 20260906170008 | 31 | 19 | 19.3 | 25.7 | 0.00 | 0.00 | 0.00 | 43 | 1012.8 |
| 20260906165101 | 32 | 22 | 16.1 | 22.5 | 0.00 | 0.00 | 0.00 | 45 | 1012.8 |
| 20260906164005 | 32 | 338 | 16.1 | 24.1 | 0.00 | 0.00 | 0.00 | 43 | 1012.8 |
| 20260906163006 | 32 | 12 | 12.9 | 24.1 | 0.00 | 0.00 | 0.00 | 42 | 1012.7 |
| 20260906161006 | 33 | 27 | 12.9 | 22.5 | 0.00 | 0.00 | 0.00 | 39 | 1012.6 |
| 20260906155005 | 33 | 12 | 16.1 | 20.9 | 0.00 | 0.00 | 0.00 | 39 | 1012.4 |
| 20260906154006 | 33 | 313 | 14.5 | 22.5 | 0.00 | 0.00 | 0.00 | 40 | 1012.4 |
| 20260906153006 | 33 | 4 | 16.1 | 22.5 | 0.00 | 0.00 | 0.00 | 39 | 1012.4 |
| 20260906152008 | 33 | 13 | 14.5 | 24.1 | 0.00 | 0.00 | 0.00 | 39 | 1012.5 |
| 20260906151005 | 33 | 349 | 16.1 | 22.5 | 0.00 | 0.00 | 0.00 | 41 | 1012.6 |
| 20260906150006 | 33 | 32 | 14.5 | 22.5 | 0.00 | 0.00 | 0.00 | 41 | 1012.7 |
| 20260906145005 | 33 | 355 | 16.1 | 19.3 | 0.00 | 0.00 | 0.00 | 41 | 1012.8 |
| 20260906143005 | 33 | 14 | 14.5 | 22.5 | 0.00 | 0.00 | 0.00 | 40 | 1012.8 |
| 20260906142005 | 33 | 65 | 17.7 | 20.9 | 0.00 | 0.00 | 0.00 | 41 | 1013.0 |
| 20260906141005 | 33 | 31 | 14.5 | 19.3 | 0.00 | 0.00 | 0.00 | 41 | 1013.2 |
| 20260906134005 | 33 | 350 | 16.1 | 20.9 | 0.00 | 0.00 | 0.00 | 40 | 1013.2 |
| 20260906133006 | 33 | 59 | 11.3 | 19.3 | 0.00 | 0.00 | 0.00 | 40 | 1013.1 |
| 20260906132010 | 33 | 12 | 11.3 | 20.9 | 0.00 | 0.00 | 0.00 | 40 | 1013.1 |
| 20260906131011 | 33 | 37 | 8.0 | 14.5 | 0.00 | 0.00 | 0.00 | 42 | 1013.1 |
| 20260906130006 | 33 | 21 | 12.9 | 16.1 | 0.00 | 0.00 | 0.00 | 41 | 1013.3 |
| 20260906123005 | 32 | 0 | 9.7 | 16.1 | 0.00 | 0.00 | 0.00 | 42 | 1013.3 |
| 20260906122005 | 32 | 72 | 3.2 | 14.5 | 0.00 | 0.00 | 0.00 | 44 | 1013.4 |
| 20260906121006 | 32 | 56 | 1.6 | 12.9 | 0.00 | 0.00 | 0.00 | 45 | 1013.6 |
| 20260906120006 | 32 | 14 | 4.8 | 11.3 | 0.00 | 0.00 | 0.00 | 47 | 1013.6 |
| 20260906115005 | 32 | 358 | 8.0 | 12.9 | 0.00 | 0.00 | 0.00 | 47 | 1013.8 |
| 20260906114005 | 31 | 29 | 3.2 | 14.5 | 0.00 | 0.00 | 0.00 | 48 | 1013.8 |
| 20260906113005 | 32 | 85 | 0.0 | 14.5 | 0.00 | 0.00 | 0.00 | 48 | 1013.7 |
| 20260906110006 | 31 | 39 | 14.5 | 16.1 | 0.00 | 0.00 | 0.00 | 49 | 1014.0 |
| 20260906105006 | 32 | 24 | 0.0 | 0.0 | 0.00 | 0.00 | 0.00 | 45 | 1014.3 |
| 20260906104005 | 32 | 28 | 0.0 | 0.0 | 0.00 | 0.00 | 0.00 | 45 | 1014.3 |
| 20260906103005 | 31 | 92 | 0.0 | 1.6 | 0.00 | 0.00 | 0.00 | 47 | 1014.2 |
| 20260906102006 | 31 | 44 | 0.0 | 0.0 | 0.00 | 0.00 | 0.00 | 49 | 1014.2 |
| 20260906101005 | 30 | 264 | 0.0 | 8.0 | 0.00 | 0.00 | 0.00 | 49 | 1014.3 |
| 20260906100005 | 28 | 331 | 3.2 | 9.7 | 0.00 | 0.00 | 0.00 | 55 | 1014.1 |
| 20260906095005 | 28 | 69 | 4.8 | 11.3 | 0.00 | 0.00 | 0.00 | 57 | 1013.9 |
| 20260906094005 | 28 | 7 | 0.0 | 9.7 | 0.00 | 0.00 | 0.00 | 60 | 1013.9 |
| 20260906093006 | 28 | 294 | 0.0 | 0.0 | 0.00 | 0.00 | 0.00 | 58 | 1013.8 |
| 20260906092006 | 28 | 47 | 0.0 | 1.6 | 0.00 | 0.00 | 0.00 | 58 | 1013.8 |
| 20260906091006 | 27 | 85 | 0.0 | 0.0 | 0.00 | 0.00 | 0.00 | 60 | 1014.0 |
| 20260906090005 | 26 | 13 | 0.0 | 0.0 | 0.00 | 0.00 | 0.00 | 61 | 1013.8 |
| 20260906085005 | 26 | 267 | 0.0 | 0.0 | 0.00 | 0.00 | 0.00 | 65 | 1013.5 |
| 20260906084005 | 27 | 94 | 0.0 | 0.0 | 0.00 | 0.00 | 0.00 | 63 | 1013.5 |
| 20260906083005 | 26 | 274 | 0.0 | 0.0 | 0.00 | 0.00 | 0.00 | 68 | 1013.7 |
| 20260906081005 | 25 | 208 | 0.0 | 0.0 | 0.00 | 0.00 | 0.00 | 71 | 1013.5 |
| 20260906080005 | 24 | 209 | 0.0 | 0.0 | 0.00 | 0.00 | 0.00 | 75 | 1013.5 |
| 20260906072005 | 21 | 191 | 0.0 | 3.2 | 0.00 | 0.00 | 0.00 | 88 | 1013.4 |
| 20260906071005 | 21 | 188 | 0.0 | 4.8 | 0.00 | 0.00 | 0.00 | 91 | 1013.2 |
| 20260906070006 | 21 | 176 | 0.0 | 0.0 | 0.00 | 0.00 | 0.00 | 94 | 1013.0 |
| 20260906063005 | 19 | 199 | 4.8 | 4.8 | 0.00 | 0.00 | 0.00 | 99 | 1012.8 |
| 20260906062005 | 19 | 223 | 0.0 | 0.0 | 0.00 | 0.00 | 0.00 | 99 | 1012.5 |
| 20260906061008 | 19 | 210 | 3.2 | 4.8 | 0.00 | 0.00 | 0.00 | 99 | 1012.3 |
| 20260906060008 | 19 | 242 | 1.6 | 3.2 | 0.00 | 0.00 | 0.00 | 99 | 1012.2 |
| 20260906055010 | 19 | 211 | 1.6 | 4.8 | 0.00 | 0.00 | 0.00 | 99 | 1012.1 |
| 20260906053005 | 19 | 193 | 1.6 | 4.8 | 0.00 | 0.00 | 0.00 | 99 | 1011.9 |
| 20260906052005 | 19 | 181 | 3.2 | 8.0 | 0.00 | 0.00 | 0.00 | 99 | 1011.8 |
| 20260906051005 | 19 | 193 | 6.4 | 9.7 | 0.00 | 0.00 | 0.00 | 99 | 1011.6 |
| 20260906050004 | 19 | 199 | 1.6 | 4.8 | 0.00 | 0.00 | 0.00 | 99 | 1011.5 |
| 20260906045005 | 18 | 187 | 3.2 | 3.2 | 0.00 | 0.00 | 0.00 | 99 | 1011.5 |
| 20260906044005 | 18 | 169 | 0.0 | 4.8 | 0.00 | 0.00 | 0.00 | 97 | 1011.5 |
| 20260906043005 | 19 | 248 | 0.0 | 0.0 | 0.00 | 0.00 | 0.00 | 97 | 1011.6 |
| 20260906042005 | 19 | 225 | 0.0 | 0.0 | 0.00 | 0.00 | 0.00 | 97 | 1011.6 |
| 20260906041005 | 19 | 202 | 0.0 | 0.0 | 0.00 | 0.00 | 0.00 | 97 | 1011.6 |
| 20260906040005 | 19 | 225 | 0.0 | 0.0 | 0.00 | 0.00 | 0.00 | 96 | 1011.7 |
| 20260906035005 | 20 | 225 | 0.0 | 0.0 | 0.00 | 0.00 | 0.00 | 95 | 1011.7 |
| 20260906034006 | 20 | 10 | 0.0 | 0.0 | 0.00 | 0.00 | 0.00 | 94 | 1011.7 |
| 20260906033006 | 20 | 22 | 0.0 | 1.6 | 0.00 | 0.00 | 0.00 | 96 | 1011.8 |
| 20260906031005 | 20 | 45 | 0.0 | 0.0 | 0.00 | 0.00 | 0.00 | 96 | 1012.1 |
| 20260906030006 | 20 | 11 | 0.0 | 0.0 | 0.00 | 0.00 | 0.00 | 95 | 1012.1 |
| 20260906025005 | 21 | 282 | 0.0 | 0.0 | 0.00 | 0.00 | 0.00 | 91 | 1012.3 |
| 20260906024005 | 21 | 215 | 0.0 | 0.0 | 0.00 | 0.00 | 0.00 | 89 | 1012.3 |
| 20260906023005 | 21 | 260 | 0.0 | 0.0 | 0.00 | 0.00 | 0.00 | 88 | 1012.1 |
| 20260906022005 | 22 | 90 | 0.0 | 0.0 | 0.00 | 0.00 | 0.00 | 85 | 1012.2 |
| 20260906020006 | 22 | 45 | 0.0 | 0.0 | 0.00 | 0.00 | 0.00 | 86 | 1012.3 |
| 20260906015005 | 22 | 45 | 0.0 | 0.0 | 0.00 | 0.00 | 0.00 | 86 | 1012.5 |
| 20260906014005 | 22 | 45 | 0.0 | 0.0 | 0.00 | 0.00 | 0.00 | 86 | 1012.5 |
| 20260906012005 | 22 | 327 | 0.0 | 0.0 | 0.00 | 0.00 | 0.00 | 83 | 1012.6 |
| 20260906005005 | 22 | 199 | 0.0 | 0.0 | 0.00 | 0.00 | 0.00 | 82 | 1012.5 |
| 20260906004005 | 22 | 202 | 0.0 | 0.0 | 0.00 | 0.00 | 0.00 | 83 | 1012.5 |
| 20260906003005 | 22 | 210 | 0.0 | 0.0 | 0.00 | 0.00 | 0.00 | 83 | 1012.5 |
| 20260906001005 | 23 | 224 | 0.0 | 0.0 | 0.00 | 0.00 | 0.00 | 81 | 1012.6 |
| 20260906000004 | 23 | 248 | 0.0 | 0.0 | 0.00 | 0.00 | 0.00 | 79 | 1012.4 |
| 20260905235005 | 23 | 186 | 0.0 | 0.0 | 0.00 | 0.00 | 0.00 | 79 | 1012.3 |
| 20260905234005 | 23 | 157 | 0.0 | 0.0 | 0.00 | 0.00 | 0.00 | 81 | 1012.3 |
| 20260905232005 | 23 | 185 | 0.0 | 1.6 | 0.00 | 0.00 | 0.00 | 81 | 1012.1 |
| 20260905231005 | 23 | 194 | 0.0 | 0.0 | 0.00 | 0.00 | 0.00 | 81 | 1012.0 |
| 20260905230006 | 23 | 178 | 0.0 | 1.6 | 0.00 | 0.00 | 0.00 | 80 | 1012.0 |
| 20260905225005 | 23 | 213 | 0.0 | 1.6 | 0.00 | 0.00 | 0.00 | 80 | 1011.8 |
| 20260905223004 | 24 | 218 | 1.6 | 9.7 | 0.00 | 0.00 | 0.00 | 77 | 1011.8 |
| 20260905222005 | 24 | 204 | 9.7 | 11.3 | 0.00 | 0.00 | 0.00 | 73 | 1011.7 |
| 20260905221005 | 25 | 191 | 0.0 | 0.0 | 0.00 | 0.00 | 0.00 | 64 | 1011.7 |
| 20260905220004 | 26 | 205 | 0.0 | 1.6 | 0.00 | 0.00 | 0.00 | 61 | 1011.7 |
| 20260905215005 | 26 | 216 | 0.0 | 1.6 | 0.00 | 0.00 | 0.00 | 59 | 1011.6 |
| 20260905214004 | 26 | 202 | 0.0 | 9.7 | 0.00 | 0.00 | 0.00 | 57 | 1011.6 |
| 20260905213004 | 27 | 180 | 0.0 | 9.7 | 0.00 | 0.00 | 0.00 | 56 | 1011.5 |
| 20260905212005 | 27 | 191 | 1.6 | 11.3 | 0.00 | 0.00 | 0.00 | 55 | 1011.6 |
| 20260905211005 | 27 | 183 | 3.2 | 16.1 | 0.00 | 0.00 | 0.00 | 56 | 1011.4 |
| 20260905210004 | 27 | 203 | 9.7 | 12.9 | 0.00 | 0.00 | 0.00 | 58 | 1011.3 |
| 20260905205005 | 27 | 217 | 8.0 | 11.3 | 0.00 | 0.00 | 0.00 | 62 | 1011.0 |
| 20260905204005 | 27 | 201 | 1.6 | 4.8 | 0.00 | 0.00 | 0.00 | 63 | 1011.0 |
| 20260905203005 | 27 | 176 | 0.0 | 9.7 | 0.00 | 0.00 | 0.00 | 63 | 1010.8 |
| 20260905202005 | 28 | 174 | 9.7 | 11.3 | 0.00 | 0.00 | 0.00 | 61 | 1010.6 |
| 20260905200004 | 29 | 202 | 0.0 | 14.5 | 0.00 | 0.00 | 0.00 | 58 | 1010.1 |
| 20260905195004 | 30 | 172 | 9.7 | 14.5 | 0.00 | 0.00 | 0.00 | 57 | 1009.7 |
| 20260905194004 | 30 | 199 | 4.8 | 12.9 | 0.00 | 0.00 | 0.00 | 55 | 1009.7 |
| 20260905193005 | 31 | 180 | 6.4 | 12.9 | 0.00 | 0.00 | 0.00 | 53 | 1009.6 |
| 20260905191005 | 32 | 138 | 9.7 | 11.3 | 0.00 | 0.00 | 0.00 | 43 | 1009.3 |
| 20260905190005 | 33 | 160 | 4.8 | 9.7 | 0.00 | 0.00 | 0.00 | 39 | 1009.0 |
| 20260905185005 | 34 | 193 | 0.0 | 0.0 | 0.00 | 0.00 | 0.00 | 38 | 1008.9 |
| 20260905184004 | 34 | 167 | 0.0 | 8.0 | 0.00 | 0.00 | 0.00 | 37 | 1008.9 |